Weather History for Vicksburg, MS

Change the Weather History Date:

Monday, November 19, 2012

  Actual Average Record
Temperature  
Mean Temperature 51 °F 54 °F  
Max Temperature 71 °F 66 °F 82 °F (1966)
Min Temperature 30 °F 43 °F 15 °F (1951)
Degree Days  
Heating Degree Days 14 11  
Month to date heating degree days 234 161  
Since 1 July heating degree days 389 263  
Cooling Degree Days 0 0  
Month to date cooling degree days 9 12  
Year to date cooling degree days 2397 2221  
Moisture  
Dew Point 37 °F    
Average Humidity 66    
Maximum Humidity 100    
Minimum Humidity 31    
Precipitation  
Precipitation 0.00 in 0.17 in 2.83 in (1948)
Month to date precipitation 1.75 2.86  
Year to date precipitation 46.04 46.99  
Sea Level Pressure  
Sea Level Pressure 30.29 in    
Wind  
Wind Speed 1 mph (ESE)    
Max Wind Speed 8 mph    
Max Gust Speed 14 mph    
Visibility 6 miles    
Events      
T = Trace of Precipitation, MM = Missing Value Source: NWS Daily Summary

Daily Weather History Graph

Daily Weather History Graph

Search for Another Location

Airport:

Trip Planner

Search our weather history database for the weather conditions in past years. The results will help you decide how hot, cold, wet, or windy it might be!

Date:

Astronomy

Nov. 19, 2012 Rise Set
Actual Time 6:37 AM CST 5:01 PM CST
Civil Twilight 6:11 AM CST 5:27 PM CST
Nautical Twilight 5:41 AM CST 5:57 PM CST
Astronomical Twilight 5:12 AM CST 6:26 PM CST
Moon 11:48 AM CST (11/19) 11:19 PM CST (11/19)
Length of Visible Light 11h 16m
Length of Day
10h 24m
Waxing Crescent, 41% of the Moon is Illuminated
Nov 19
Waxing Crescent
Nov 20
First Quarter
Nov 28
Full
Dec 6
Last Quarter
Dec 13
New

Hourly Weather History & Observations

Time (CST) Temp. Windchill Dew Point Humidity Pressure Visibility Wind Dir Wind Speed Gust Speed Precip Events Conditions
12:53 AM 33.1 °F - 33.1 °F 100% 30.32 in 10.0 mi Calm Calm - N/A   Clear
1:03 AM 33.8 °F - 32.0 °F 93% 30.31 in 1.8 mi Calm Calm - N/A   Clear
1:30 AM 33.8 °F 30.8 °F 32.0 °F 93% 30.30 in 0.8 mi East 3.5 mph - N/A   Clear
1:35 AM 35.6 °F - 33.8 °F 93% 30.30 in 2.5 mi Calm Calm - N/A   Clear
1:42 AM 33.8 °F - 33.8 °F 100% 30.30 in 10.0 mi Calm Calm - N/A   Clear
1:53 AM 30.9 °F - 30.9 °F 100% 30.32 in 2.0 mi Calm Calm - N/A   Clear
2:02 AM 32.0 °F - 30.2 °F 93% 30.30 in 0.8 mi Calm Calm - N/A   Clear
2:42 AM 33.8 °F - 32.0 °F 93% 30.29 in 0.8 mi Calm Calm - N/A   Mist
2:45 AM 33.8 °F - 33.8 °F 100% 30.29 in 1.2 mi Calm Calm - N/A   Clear
2:53 AM 33.1 °F - 33.1 °F 100% 30.31 in 10.0 mi Calm Calm - N/A   Clear
3:03 AM 33.8 °F - 33.8 °F 100% 30.29 in 1.8 mi Calm Calm - N/A   Clear
3:26 AM 33.8 °F - 33.8 °F 100% 30.28 in 0.8 mi Calm Calm - N/A   Clear
3:32 AM 35.6 °F - 35.6 °F 100% 30.28 in 2.0 mi Calm Calm - N/A   Clear
3:40 AM 35.6 °F - 33.8 °F 93% 30.28 in 3.0 mi Calm Calm - N/A   Clear
3:43 AM 35.6 °F - 33.8 °F 93% 30.28 in 1.8 mi Calm Calm - N/A   Clear
3:53 AM 35.1 °F - 34.0 °F 96% 30.30 in 1.0 mi Calm Calm - N/A   Clear
3:59 AM 35.6 °F - 33.8 °F 93% 30.28 in 3.0 mi Calm Calm - N/A   Clear
4:53 AM 37.0 °F - 36.0 °F 96% 30.32 in 10.0 mi Calm Calm - N/A   Clear
5:53 AM 36.0 °F - 35.1 °F 97% 30.32 in 7.0 mi Calm Calm - N/A   Clear
6:49 AM 35.6 °F - 33.8 °F 93% 30.30 in 1.8 mi Calm Calm - N/A   Clear
6:53 AM 36.0 °F - 35.1 °F 97% 30.32 in 0.8 mi Calm Calm - N/A   Clear
7:53 AM 41.0 °F - 39.0 °F 93% 30.34 in 1.5 mi Calm Calm - N/A   Clear
7:56 AM 42.8 °F - 39.2 °F 87% 30.32 in 3.0 mi Calm Calm - N/A   Clear
8:53 AM 52.0 °F - 44.1 °F 74% 30.36 in 10.0 mi Calm Calm - N/A   Clear
9:53 AM 59.0 °F - 43.0 °F 55% 30.35 in 10.0 mi Calm Calm - N/A   Clear
10:53 AM 63.0 °F - 43.0 °F 48% 30.33 in 10.0 mi SSE 4.6 mph - N/A   Clear
11:53 AM 66.9 °F - 41.0 °F 39% 30.31 in 10.0 mi Calm Calm - N/A   Clear
12:53 PM 69.1 °F - 39.0 °F 33% 30.28 in 10.0 mi Variable 3.5 mph - N/A   Clear
1:53 PM 71.1 °F - 39.0 °F 31% 30.25 in 10.0 mi ENE 6.9 mph - N/A   Clear
2:53 PM 70.0 °F - 37.9 °F 31% 30.22 in 10.0 mi Calm Calm - N/A   Clear
3:53 PM 68.0 °F - 39.0 °F 35% 30.21 in 10.0 mi Calm Calm - N/A   Clear
4:53 PM 59.0 °F - 39.9 °F 49% 30.22 in 10.0 mi Calm Calm - N/A   Clear
5:53 PM 48.0 °F - 39.0 °F 71% 30.24 in 10.0 mi Calm Calm - N/A   Clear
6:53 PM 45.0 °F - 39.9 °F 82% 30.24 in 10.0 mi Calm Calm - N/A   Clear
7:53 PM 43.0 °F - 39.0 °F 86% 30.24 in 10.0 mi Calm Calm - N/A   Clear
9:53 PM 46.0 °F - 42.1 °F 86% 30.23 in 10.0 mi Calm Calm - N/A   Clear
10:53 PM 46.9 °F - 42.1 °F 83% 30.23 in 10.0 mi Calm Calm - N/A   Mostly Cloudy
11:53 PM 44.1 °F - 42.1 °F 93% 30.24 in 10.0 mi Calm Calm - N/A   Clear